,,Stat6,,Stat2,,Stat8,,Stat9,,Stat10,,Wind1,,Wind1,
time,status,PA1M_AVG,status,PR1M_SUM,status,RH1M_AVG,status,SR1M_AVG,status,TA1M_AVG,status,W1dAve1m,status,W1sAve1m,
2004-10-27, 00:00:00,VALID,916.923,VALID,0,VALID,92.6478,VALID,0.0169808,VALID,20.9411,VALID,130,VALID,1.60529,
2004-10-27, 00:01:00,VALID,916.927,VALID,0,VALID,92.7864,VALID,0,VALID,20.9608,VALID,116,VALID,1.17882,
2004-10-27, 00:02:00,VALID,916.892,VALID,0,VALID,92.3706,VALID,0.0169808,VALID,20.954,VALID,88,VALID,1.48666,
2004-10-27, 00:03:00,VALID,916.904,VALID,0,VALID,92.5499,VALID,0,VALID,20.9861,VALID,70,VALID,0.8232,
2004-10-27, 00:04:00,VALID,916.865,VALID,0,VALID,92.3045,VALID,0,VALID,20.9869,VALID,135,VALID,1.54908,
2004-10-27, 00:05:00,VALID,916.81,VALID,0,VALID,92.2549,VALID,0,VALID,20.9928,VALID,153,VALID,1.73037,
2004-10-27, 00:06:00,VALID,916.783,VALID,0,VALID,91.9917,VALID,0.0169808,VALID,20.9958,VALID,106,VALID,1.28181,
2004-10-27, 00:07:00,VALID,916.784,VALID,0,VALID,91.9243,VALID,-0.0169808,VALID,21.0221,VALID,88,VALID,1.38434,
2004-10-27, 00:08:00,VALID,916.783,VALID,0,VALID,91.7946,VALID,0.0339617,VALID,21.0445,VALID,128,VALID,1.17387,
2004-10-27, 00:09:00,VALID,916.779,VALID,0,VALID,91.9853,VALID,0.0339617,VALID,21.0507,VALID,130,VALID,0.868641,
2004-10-27, 00:10:00,VALID,916.752,VALID,0,VALID,91.9828,VALID,0,VALID,21.038,VALID,78,VALID,1.46307,
2004-10-27, 00:11:00,VALID,916.75,VALID,0,VALID,92.096,VALID,0,VALID,21.0353,VALID,92,VALID,1.8569,
2004-10-27, 00:12:00,VALID,916.716,VALID,0,VALID,92.0158,VALID,0,VALID,21.0187,VALID,135,VALID,1.9083,
2004-10-27, 00:13:00,VALID,916.72,VALID,0,VALID,92.438,VALID,0,VALID,21.0184,VALID,99,VALID,1.40941,
2004-10-27, 00:14:00,VALID,916.697,VALID,0,VALID,92.728,VALID,0,VALID,20.9705,VALID,114,VALID,1.55713,
2004-10-27, 00:15:00,VALID,916.653,VALID,0,VALID,92.9746,VALID,-0.0339617,VALID,20.9161,VALID,107,VALID,1.64684,
2004-10-27, 00:16:00,VALID,916.624,VALID,0,VALID,93.3142,VALID,-0.0849042,VALID,20.8582,VALID,101,VALID,2.07449,
2004-10-27, 00:17:00,VALID,916.6,VALID,0,VALID,93.3078,VALID,-0.0849042,VALID,20.8294,VALID,86,VALID,2.17823,
2004-10-27, 00:18:00,VALID,916.561,VALID,0,VALID,93.4261,VALID,-0.0679233,VALID,20.8393,VALID,110,VALID,1.03525,
2004-10-27, 00:19:00,VALID,916.563,VALID,0,VALID,93.8342,VALID,-0.101885,VALID,20.8262,VALID,57,VALID,1.63281,
2004-10-27, 00:20:00,VALID,916.55,VALID,0,VALID,93.805,VALID,-0.0679233,VALID,20.7842,VALID,93,VALID,1.32715,
2004-10-27, 00:21:00,VALID,916.511,VALID,0,VALID,94.0212,VALID,-0.0849042,VALID,20.765,VALID,88,VALID,0.994922,
2004-10-27, 00:22:00,VALID,916.478,VALID,0,VALID,94.0695,VALID,-0.101885,VALID,20.7424,VALID,108,VALID,2.15909,
2004-10-27, 00:23:00,VALID,916.441,VALID,0,VALID,94.3009,VALID,-0.101885,VALID,20.7271,VALID,69,VALID,2.05907,
2004-10-27, 00:24:00,VALID,916.444,VALID,0,VALID,94.2526,VALID,-0.0679233,VALID,20.7066,VALID,87,VALID,1.5895,
2004-10-27, 00:25:00,VALID,916.45,VALID,0,VALID,94.0339,VALID,-0.101885,VALID,20.7169,VALID,87,VALID,1.35472,
2004-10-27, 00:26:00,VALID,916.444,VALID,0,VALID,94.1293,VALID,-0.0849042,VALID,20.7298,VALID,101,VALID,1.00672,
2004-10-27, 00:27:00,VALID,916.424,VALID,0,VALID,94.2119,VALID,-0.101885,VALID,20.73,VALID,81,VALID,1.25316,
2004-10-27, 00:28:00,VALID,916.421,VALID,0,VALID,94.2755,VALID,-0.101885,VALID,20.7139,VALID,72,VALID,1.35565,
2004-10-27, 00:29:00,VALID,916.418,VALID,0,VALID,94.0644,VALID,-0.0849042,VALID,20.7139,VALID,113,VALID,1.54124,
2004-10-27, 00:30:00,VALID,916.414,VALID,0,VALID,93.9487,VALID,-0.0339617,VALID,20.7327,VALID,96,VALID,1.1448,
2004-10-27, 00:31:00,VALID,916.389,VALID,0,VALID,93.8571,VALID,0,VALID,20.7384,VALID,110,VALID,1.37649,
2004-10-27, 00:32:00,VALID,916.383,VALID,0,VALID,93.9271,VALID,0,VALID,20.7411,VALID,84,VALID,1.0971,
2004-10-27, 00:33:00,VALID,916.378,VALID,0,VALID,93.9983,VALID,0,VALID,20.7384,VALID,113,VALID,0.660156,
2004-10-27, 00:34:00,VALID,916.347,VALID,0,VALID,94.0771,VALID,0,VALID,20.729,VALID,129,VALID,1.01674,
2004-10-27, 00:35:00,VALID,916.359,VALID,0,VALID,93.9144,VALID,-0.0169808,VALID,20.7128,VALID,114,VALID,1.65252,
2004-10-27, 00:36:00,VALID,916.328,VALID,0,VALID,93.9258,VALID,0,VALID,20.7223,VALID,76,VALID,1.5881,
2004-10-27, 00:37:00,VALID,916.331,VALID,0,VALID,93.8864,VALID,0,VALID,20.7322,VALID,121,VALID,1.53664,
2004-10-27, 00:38:00,VALID,916.309,VALID,0,VALID,93.543,VALID,0.0169808,VALID,20.7317,VALID,116,VALID,1.76581,
2004-10-27, 00:39:00,VALID,916.298,VALID,0,VALID,93.1578,VALID,0.0169808,VALID,20.7898,VALID,59,VALID,2.00672,
2004-10-27, 00:40:00,VALID,916.287,VALID,0,VALID,93.1221,VALID,0.0339617,VALID,20.8383,VALID,139,VALID,1.32626,
2004-10-27, 00:41:00,VALID,916.284,VALID,0,VALID,93.159,VALID,0.0339617,VALID,20.8453,VALID,92,VALID,1.43605,
2004-10-27, 00:42:00,VALID,916.269,VALID,0,VALID,93.1094,VALID,0,VALID,20.8256,VALID,69,VALID,1.9782,
2004-10-27, 00:43:00,VALID,916.259,VALID,0,VALID,93.0039,VALID,0.0339617,VALID,20.8447,VALID,92,VALID,1.55469,
2004-10-27, 00:44:00,VALID,916.247,VALID,0,VALID,92.9797,VALID,0.0169808,VALID,20.8348,VALID,97,VALID,1.4739,
2004-10-27, 00:45:00,VALID,916.25,VALID,0,VALID,92.8678,VALID,0.0339617,VALID,20.8415,VALID,100,VALID,1.00927,
2004-10-27, 00:46:00,VALID,916.238,VALID,0,VALID,92.6962,VALID,0.0339617,VALID,20.8574,VALID,98,VALID,1.33743,
2004-10-27, 00:47:00,VALID,916.24,VALID,0,VALID,92.8602,VALID,0.0169808,VALID,20.8803,VALID,110,VALID,0.877232,
2004-10-27, 00:48:00,VALID,916.228,VALID,0,VALID,92.5156,VALID,0.0169808,VALID,20.8805,VALID,83,VALID,1.56994,
2004-10-27, 00:49:00,VALID,916.218,VALID,0,VALID,92.789,VALID,0.0169808,VALID,20.8865,VALID,49,VALID,1.45046,
2004-10-27, 00:50:00,VALID,916.199,VALID,0,VALID,92.5219,VALID,0.0339617,VALID,20.8838,VALID,78,VALID,1.81836,
2004-10-27, 00:51:00,VALID,916.184,VALID,0,VALID,92.452,VALID,0,VALID,20.8932,VALID,68,VALID,1.03392,
2004-10-27, 00:52:00,VALID,916.169,VALID,0,VALID,92.6428,VALID,0.0169808,VALID,20.8935,VALID,145,VALID,0.789608,
2004-10-27, 00:53:00,VALID,916.178,VALID,0,VALID,92.7127,VALID,0,VALID,20.8674,VALID,57,VALID,0.916424,
2004-10-27, 00:54:00,VALID,916.172,VALID,0,VALID,92.7114,VALID,0,VALID,20.8741,VALID,86,VALID,0.443132,
2004-10-27, 00:55:00,VALID,916.151,VALID,0,VALID,92.9988,VALID,0.0169808,VALID,20.8574,VALID,40,VALID,0.500355,
2004-10-27, 00:56:00,VALID,916.148,VALID,0,VALID,93.0128,VALID,0.0339617,VALID,20.8383,VALID,51,VALID,0.959604,
2004-10-27, 00:57:00,VALID,916.154,VALID,0,VALID,93.0713,VALID,0.0169808,VALID,20.8122,VALID,76,VALID,0.794792,
2004-10-27, 00:58:00,VALID,916.126,VALID,0,VALID,93.3459,VALID,0.0169808,VALID,20.796,VALID,41,VALID,0.353468,
2004-10-27, 00:59:00,VALID,916.144,VALID,0,VALID,93.468,VALID,0,VALID,20.7476,VALID,28,VALID,0.262109,
2004-10-27, 01:00:00,VALID,916.169,VALID,0,VALID,93.4159,VALID,0.0339617,VALID,20.7382,VALID,122,VALID,1.28478,
2004-10-27, 01:01:00,VALID,916.14,VALID,0,VALID,93.4909,VALID,0.0339617,VALID,20.7516,VALID,38,VALID,1.66797,
2004-10-27, 01:02:00,VALID,916.142,VALID,0,VALID,93.454,VALID,0,VALID,20.7707,VALID,45,VALID,1.48491,
2004-10-27, 01:03:00,VALID,916.135,VALID,0,VALID,93.3943,VALID,0,VALID,20.7834,VALID,110,VALID,0.275568,
2004-10-27, 01:04:00,VALID,916.137,VALID,0,VALID,93.4159,VALID,0,VALID,20.7739,VALID,135,VALID,0.26598,
2004-10-27, 01:05:00,VALID,916.121,VALID,0,VALID,93.5825,VALID,-0.0169808,VALID,20.7675,VALID,137,VALID,0.601199,
2004-10-27, 01:06:00,VALID,916.124,VALID,0,VALID,93.3968,VALID,-0.0169808,VALID,20.7441,VALID,117,VALID,0.936678,
2004-10-27, 01:07:00,VALID,916.114,VALID,0,VALID,93.5024,VALID,0.0339617,VALID,20.764,VALID,162,VALID,1.33903,
2004-10-27, 01:08:00,VALID,916.103,VALID,0,VALID,93.6549,VALID,0.0339617,VALID,20.761,VALID,157,VALID,1.50781,
2004-10-27, 01:09:00,VALID,916.091,VALID,0,VALID,93.7173,VALID,0.0169808,VALID,20.7317,VALID,148,VALID,1.50373,
2004-10-27, 01:10:00,VALID,916.095,VALID,0,VALID,93.6969,VALID,0,VALID,20.732,VALID,104,VALID,1.30697,
2004-10-27, 01:11:00,VALID,916.095,VALID,0,VALID,93.6244,VALID,0.0169808,VALID,20.7384,VALID,121,VALID,0.977896,
2004-10-27, 01:12:00,VALID,916.115,VALID,0,VALID,93.6651,VALID,0.0169808,VALID,20.7411,VALID,115,VALID,0.502038,
2004-10-27, 01:13:00,VALID,916.123,VALID,0,VALID,93.7401,VALID,0,VALID,20.754,VALID,152,VALID,1.69817,
2004-10-27, 01:14:00,VALID,916.103,VALID,0,VALID,93.4273,VALID,0,VALID,20.754,VALID,118,VALID,1.30748,
2004-10-27, 01:15:00,VALID,916.097,VALID,0,VALID,93.3917,VALID,-0.0169808,VALID,20.7901,VALID,145,VALID,0.834223,
2004-10-27, 01:16:00,VALID,916.05,VALID,0,VALID,93.1743,VALID,-0.0509425,VALID,20.8167,VALID,154,VALID,1.52653,
2004-10-27, 01:17:00,VALID,916.009,VALID,0,VALID,93.0815,VALID,-0.0339617,VALID,20.8423,VALID,125,VALID,1.54233,
2004-10-27, 01:18:00,VALID,916.015,VALID,0,VALID,93.1463,VALID,-0.0169808,VALID,20.8587,VALID,95,VALID,1.19417,
2004-10-27, 01:19:00,VALID,915.968,VALID,0,VALID,92.9111,VALID,-0.0849042,VALID,20.8525,VALID,88,VALID,1.77656,
2004-10-27, 01:20:00,VALID,915.945,VALID,0,VALID,92.9276,VALID,-0.118866,VALID,20.8749,VALID,45,VALID,2.3105,
2004-10-27, 01:21:00,VALID,915.938,VALID,0,VALID,92.7635,VALID,-0.0679233,VALID,20.8714,VALID,72,VALID,1.74902,
2004-10-27, 01:22:00,VALID,915.93,VALID,0,VALID,92.2714,VALID,-0.0849042,VALID,20.8999,VALID,79,VALID,1.84583,
2004-10-27, 01:23:00,VALID,915.954,VALID,0,VALID,92.4673,VALID,-0.0679233,VALID,20.9395,VALID,59,VALID,1.69767,
2004-10-27, 01:24:00,VALID,915.927,VALID,0,VALID,92.2333,VALID,-0.0339617,VALID,20.9586,VALID,125,VALID,1.46094,
2004-10-27, 01:25:00,VALID,915.855,VALID,0,VALID,92.3935,VALID,-0.0849042,VALID,20.9715,VALID,69,VALID,1.51997,
2004-10-27, 01:26:00,VALID,915.839,VALID,0,VALID,92.5219,VALID,-0.0679233,VALID,20.9653,VALID,91,VALID,1.02139,
2004-10-27, 01:27:00,VALID,915.801,VALID,0,VALID,92.7623,VALID,-0.0679233,VALID,20.9524,VALID,59,VALID,1.05868,
2004-10-27, 01:28:00,VALID,915.759,VALID,0,VALID,92.775,VALID,-0.0849042,VALID,20.9134,VALID,74,VALID,1.16183,
2004-10-27, 01:29:00,VALID,915.718,VALID,0,VALID,92.7038,VALID,-0.0849042,VALID,20.894,VALID,80,VALID,1.25018,
2004-10-27, 01:30:00,VALID,915.714,VALID,0,VALID,92.6021,VALID,-0.0339617,VALID,20.897,VALID,48,VALID,1.73906,
2004-10-27, 01:31:00,VALID,915.694,VALID,0,VALID,92.6669,VALID,-0.0509425,VALID,20.9002,VALID,56,VALID,1.34282,
2004-10-27, 01:32:00,VALID,915.649,VALID,0,VALID,92.672,VALID,-0.0509425,VALID,20.8873,VALID,18,VALID,0.722396,
2004-10-27, 01:33:00,VALID,915.617,VALID,0,VALID,92.7343,VALID,-0.0679233,VALID,20.8905,VALID,85,VALID,0.332403,
2004-10-27, 01:34:00,VALID,915.599,VALID,0,VALID,92.0438,VALID,-0.0509425,VALID,20.8875,VALID,45,VALID,1.91175,
2004-10-27, 01:35:00,VALID,915.601,VALID,0,VALID,91.3953,VALID,-0.0339617,VALID,20.9578,VALID,65,VALID,1.84561,
2004-10-27, 01:36:00,VALID,915.631,VALID,0,VALID,91.8633,VALID,-0.0509425,VALID,21.0103,VALID,63,VALID,1.18731,
2004-10-27, 01:37:00,VALID,915.626,VALID,0,VALID,92.1748,VALID,-0.0679233,VALID,20.9683,VALID,38,VALID,1.10067,
2004-10-27, 01:38:00,VALID,915.621,VALID,0,VALID,92.4126,VALID,-0.101885,VALID,20.9136,VALID,94,VALID,0.826029,
2004-10-27, 01:39:00,VALID,915.622,VALID,0,VALID,92.6224,VALID,-0.0679233,VALID,20.8681,VALID,137,VALID,0.297805,
2004-10-27, 01:40:00,VALID,915.601,VALID,0,VALID,92.836,VALID,-0.0849042,VALID,20.8364,VALID,153,VALID,0.00651042,
2004-10-27, 01:41:00,VALID,915.572,VALID,0,VALID,92.9568,VALID,-0.101885,VALID,20.7973,VALID,150,VALID,0.369606,
2004-10-27, 01:42:00,VALID,915.551,VALID,0,VALID,93.1349,VALID,-0.0679233,VALID,20.7774,VALID,113,VALID,0.248698,
2004-10-27, 01:43:00,VALID,915.518,VALID,0,VALID,93.3625,VALID,-0.0849042,VALID,20.7486,VALID,69,VALID,0.405523,
2004-10-27, 01:44:00,VALID,915.505,VALID,0,VALID,93.7923,VALID,-0.0849042,VALID,20.7295,VALID,17,VALID,0.0511364,
2004-10-27, 01:45:00,VALID,915.511,VALID,0,VALID,93.8673,VALID,0.0169808,VALID,20.6867,VALID,17,VALID,0.0679506,
2004-10-27, 01:46:00,VALID,915.502,VALID,0,VALID,93.9818,VALID,0.0169808,VALID,20.6472,VALID,17,VALID,0.099359,
2004-10-27, 01:47:00,VALID,915.481,VALID,0,VALID,94.1254,VALID,0.0509425,VALID,20.6184,VALID,17,VALID,0.067294,
2004-10-27, 01:48:00,VALID,915.484,VALID,0,VALID,94.3022,VALID,0,VALID,20.5856,VALID,21,VALID,0.327762,
2004-10-27, 01:49:00,VALID,915.456,VALID,0,VALID,94.3467,VALID,0.0339617,VALID,20.5697,VALID,138,VALID,0.535342,
2004-10-27, 01:50:00,VALID,915.459,VALID,0,VALID,94.512,VALID,0.0169808,VALID,20.5406,VALID,164,VALID,1.00176,
2004-10-27, 01:51:00,VALID,915.449,VALID,0,VALID,94.7651,VALID,0.0339617,VALID,20.5019,VALID,160,VALID,0.949219,
2004-10-27, 01:52:00,VALID,915.42,VALID,0,VALID,94.9342,VALID,0.0849042,VALID,20.4728,VALID,165,VALID,0.795015,
2004-10-27, 01:53:00,VALID,915.418,VALID,0,VALID,95.069,VALID,0,VALID,20.4437,VALID,172,VALID,0.623698,
2004-10-27, 01:54:00,VALID,915.42,VALID,0,VALID,95.1872,VALID,0.0509425,VALID,20.4141,VALID,179,VALID,0.808321,
2004-10-27, 01:55:00,VALID,915.414,VALID,0,VALID,95.2813,VALID,0,VALID,20.3888,VALID,183,VALID,0.714844,
2004-10-27, 01:56:00,VALID,915.427,VALID,0,VALID,95.4416,VALID,0.0339617,VALID,20.3568,VALID,181,VALID,0.21005,
2004-10-27, 01:57:00,VALID,915.425,VALID,0,VALID,95.5293,VALID,0.0339617,VALID,20.324,VALID,39,VALID,0.366992,
2004-10-27, 01:58:00,VALID,915.406,VALID,0,VALID,95.7048,VALID,0.0339617,VALID,20.2822,VALID,60,VALID,0.313519,
2004-10-27, 01:59:00,VALID,915.361,VALID,0,VALID,95.926,VALID,0.0339617,VALID,20.2564,VALID,100,VALID,0.0600818,
2004-10-27, 02:00:00,VALID,915.332,VALID,0,VALID,96.0634,VALID,-0.0169808,VALID,20.2351,VALID,111,VALID,0.342507,
2004-10-27, 02:01:00,VALID,915.295,VALID,0,VALID,96.0532,VALID,-0.0339617,VALID,20.2321,VALID,83,VALID,1.04983,
2004-10-27, 02:02:00,VALID,915.23,VALID,0,VALID,95.4034,VALID,-0.0169808,VALID,20.2738,VALID,76,VALID,1.79278,
2004-10-27, 02:03:00,VALID,915.202,VALID,0,VALID,94.7498,VALID,-0.0679233,VALID,20.3772,VALID,88,VALID,1.44034,
2004-10-27, 02:04:00,VALID,915.149,VALID,0,VALID,93.9245,VALID,-0.0339617,VALID,20.4773,VALID,94,VALID,1.84127,
2004-10-27, 02:05:00,VALID,915.11,VALID,0,VALID,93.3129,VALID,-0.0339617,VALID,20.5938,VALID,104,VALID,1.8689,
2004-10-27, 02:06:00,VALID,915.093,VALID,0,VALID,92.7114,VALID,-0.0509425,VALID,20.6811,VALID,116,VALID,1.94695,
2004-10-27, 02:07:00,VALID,915.066,VALID,0,VALID,92.6987,VALID,-0.0849042,VALID,20.7489,VALID,117,VALID,1.21761,
2004-10-27, 02:08:00,VALID,915.016,VALID,0,VALID,92.6237,VALID,-0.0509425,VALID,20.7653,VALID,97,VALID,1.6092,
2004-10-27, 02:09:00,VALID,914.993,VALID,0,VALID,92.4724,VALID,-0.0679233,VALID,20.7844,VALID,108,VALID,1.68078,
2004-10-27, 02:10:00,VALID,914.964,VALID,0,VALID,92.2778,VALID,-0.0339617,VALID,20.8006,VALID,89,VALID,2.32559,
2004-10-27, 02:11:00,VALID,914.931,VALID,0,VALID,92.0553,VALID,0,VALID,20.8455,VALID,70,VALID,2.14435,
2004-10-27, 02:12:00,VALID,914.913,VALID,0,VALID,91.9904,VALID,-0.0509425,VALID,20.8746,VALID,72,VALID,0.835938,
2004-10-27, 02:13:00,VALID,914.881,VALID,0,VALID,91.9993,VALID,-0.0509425,VALID,20.8619,VALID,82,VALID,1.67631,
2004-10-27, 02:14:00,VALID,914.876,VALID,0,VALID,91.7959,VALID,-0.0509425,VALID,20.8716,VALID,85,VALID,1.70712,
2004-10-27, 02:15:00,VALID,914.845,VALID,0,VALID,91.6534,VALID,-0.0679233,VALID,20.8881,VALID,36,VALID,2.07376,
2004-10-27, 02:16:00,VALID,914.82,VALID,0,VALID,91.3559,VALID,-0.0679233,VALID,20.8945,VALID,70,VALID,1.77439,
2004-10-27, 02:17:00,VALID,914.806,VALID,0,VALID,90.7811,VALID,-0.101885,VALID,20.9699,VALID,87,VALID,1.77046,
2004-10-27, 02:18:00,VALID,914.794,VALID,0,VALID,90.5408,VALID,-0.0339617,VALID,21.0369,VALID,65,VALID,1.7141,
2004-10-27, 02:19:00,VALID,914.791,VALID,0,VALID,90.4454,VALID,-0.0679233,VALID,21.0466,VALID,94,VALID,1.39566,
2004-10-27, 02:20:00,VALID,914.777,VALID,0,VALID,90.7074,VALID,-0.0849042,VALID,21.0598,VALID,58,VALID,0.817708,
2004-10-27, 02:21:00,VALID,914.773,VALID,0,VALID,90.9884,VALID,-0.0679233,VALID,21.0243,VALID,41,VALID,0.925595,
2004-10-27, 02:22:00,VALID,914.766,VALID,0,VALID,91.1639,VALID,-0.101885,VALID,20.9591,VALID,52,VALID,0.776456,
2004-10-27, 02:23:00,VALID,914.748,VALID,0,VALID,91.0838,VALID,-0.101885,VALID,20.9341,VALID,62,VALID,1.62028,
2004-10-27, 02:24:00,VALID,914.766,VALID,0,VALID,90.6946,VALID,-0.101885,VALID,20.9594,VALID,56,VALID,2.77743,
2004-10-27, 02:25:00,VALID,914.744,VALID,0,VALID,90.5484,VALID,-0.0849042,VALID,20.9658,VALID,43,VALID,2.25019,
2004-10-27, 02:26:00,VALID,914.706,VALID,0,VALID,89.9787,VALID,-0.0679233,VALID,20.9917,VALID,50,VALID,1.98229,
2004-10-27, 02:27:00,VALID,914.696,VALID,0,VALID,90.1199,VALID,-0.0849042,VALID,21.0474,VALID,61,VALID,2.23092,
2004-10-27, 02:28:00,VALID,914.703,VALID,0,VALID,89.7727,VALID,-0.0849042,VALID,21.0372,VALID,82,VALID,2.09013,
2004-10-27, 02:29:00,VALID,914.707,VALID,0,VALID,89.6545,VALID,-0.0849042,VALID,21.0856,VALID,117,VALID,1.89915,
2004-10-27, 02:30:00,VALID,914.72,VALID,0,VALID,89.5121,VALID,-0.0339617,VALID,21.104,VALID,79,VALID,1.52743,
2004-10-27, 02:31:00,VALID,914.667,VALID,0,VALID,89.0657,VALID,0.0339617,VALID,21.1164,VALID,57,VALID,3.4573,
2004-10-27, 02:32:00,VALID,914.7,VALID,0,VALID,89.142,VALID,0.0509425,VALID,21.1775,VALID,80,VALID,1.69149,
2004-10-27, 02:33:00,VALID,914.671,VALID,0,VALID,89.6189,VALID,0.0509425,VALID,21.1514,VALID,74,VALID,1.17835,
2004-10-27, 02:34:00,VALID,914.6,VALID,0,VALID,89.5235,VALID,0.0169808,VALID,21.0902,VALID,129,VALID,3.65267,
2004-10-27, 02:35:00,VALID,914.557,VALID,0,VALID,88.7834,VALID,0.0509425,VALID,21.1158,VALID,79,VALID,2.88653,
2004-10-27, 02:36:00,VALID,914.558,VALID,0,VALID,88.4185,VALID,0.0509425,VALID,21.1842,VALID,66,VALID,3.23775,
2004-10-27, 02:37:00,VALID,914.493,VALID,0,VALID,87.3389,VALID,0.0509425,VALID,21.2738,VALID,79,VALID,2.44861,
2004-10-27, 02:38:00,VALID,914.45,VALID,0,VALID,87.2957,VALID,0.0679233,VALID,21.3643,VALID,39,VALID,2.76105,
2004-10-27, 02:39:00,VALID,914.441,VALID,0,VALID,87.2397,VALID,0.0509425,VALID,21.3845,VALID,60,VALID,2.50521,
2004-10-27, 02:40:00,VALID,914.431,VALID,0,VALID,86.7756,VALID,0.0679233,VALID,21.42,VALID,61,VALID,2.68617,
2004-10-27, 02:41:00,VALID,914.421,VALID,0,VALID,86.8976,VALID,0.0339617,VALID,21.455,VALID,71,VALID,1.9564,
2004-10-27, 02:42:00,VALID,914.417,VALID,0,VALID,86.96,VALID,0.0679233,VALID,21.4289,VALID,76,VALID,2.93508,
2004-10-27, 02:43:00,VALID,914.435,VALID,0,VALID,86.7679,VALID,0.0679233,VALID,21.4133,VALID,54,VALID,3.02362,
2004-10-27, 02:44:00,VALID,914.445,VALID,0,VALID,86.2746,VALID,0.0339617,VALID,21.4453,VALID,61,VALID,3.56719,
2004-10-27, 02:45:00,VALID,914.457,VALID,0,VALID,86.4984,VALID,-0.0169808,VALID,21.475,VALID,46,VALID,2.22602,
2004-10-27, 02:46:00,VALID,914.465,VALID,0,VALID,86.2758,VALID,-0.0509425,VALID,21.4663,VALID,76,VALID,2.22443,
2004-10-27, 02:47:00,VALID,914.46,VALID,0,VALID,86.4475,VALID,-0.0339617,VALID,21.4927,VALID,65,VALID,2.37821,
2004-10-27, 02:48:00,VALID,914.446,VALID,0,VALID,87.0146,VALID,-0.101885,VALID,21.4534,VALID,90,VALID,1.51524,
2004-10-27, 02:49:00,VALID,914.464,VALID,0,VALID,87.4699,VALID,-0.0339617,VALID,21.3923,VALID,143,VALID,1.24721,
2004-10-27, 02:50:00,VALID,914.473,VALID,0,VALID,87.4978,VALID,-0.0849042,VALID,21.3403,VALID,86,VALID,1.13536,
2004-10-27, 02:51:00,VALID,914.491,VALID,0,VALID,87.4915,VALID,-0.0679233,VALID,21.2913,VALID,68,VALID,1.30913,
2004-10-27, 02:52:00,VALID,914.487,VALID,0,VALID,87.2028,VALID,-0.0849042,VALID,21.2851,VALID,130,VALID,1.94773,
2004-10-27, 02:53:00,VALID,914.538,VALID,0,VALID,87.1876,VALID,-0.0509425,VALID,21.318,VALID,103,VALID,1.90856,
2004-10-27, 02:54:00,VALID,914.548,VALID,0,VALID,87.6975,VALID,-0.0509425,VALID,21.3207,VALID,66,VALID,1.22017,
2004-10-27, 02:55:00,VALID,914.553,VALID,0,VALID,87.8119,VALID,-0.0509425,VALID,21.269,VALID,34,VALID,3.10087,
2004-10-27, 02:56:00,VALID,914.598,VALID,0,VALID,87.7356,VALID,-0.0849042,VALID,21.2722,VALID,92,VALID,1.97247,
2004-10-27, 02:57:00,VALID,914.53,VALID,0,VALID,87.1278,VALID,-0.0679233,VALID,21.2717,VALID,115,VALID,2.81138,
2004-10-27, 02:58:00,VALID,914.508,VALID,0,VALID,86.1169,VALID,-0.0509425,VALID,21.3336,VALID,94,VALID,1.47294,
2004-10-27, 02:59:00,VALID,914.502,VALID,0,VALID,86.3687,VALID,-0.0849042,VALID,21.4114,VALID,122,VALID,3.21675,
2004-10-27, 03:00:00,VALID,914.529,VALID,0,VALID,85.7354,VALID,-0.0679233,VALID,21.4531,VALID,87,VALID,3.47356,
2004-10-27, 03:01:00,VALID,914.541,VALID,0,VALID,85.0767,VALID,-0.0849042,VALID,21.5692,VALID,84,VALID,2.16426,
2004-10-27, 03:02:00,VALID,914.557,VALID,0,VALID,85.2776,VALID,-0.0679233,VALID,21.608,VALID,62,VALID,1.53594,
2004-10-27, 03:03:00,VALID,914.55,VALID,0,VALID,84.9356,VALID,-0.0509425,VALID,21.6179,VALID,79,VALID,2.37016,
2004-10-27, 03:04:00,VALID,914.567,VALID,0,VALID,85.1988,VALID,-0.0849042,VALID,21.657,VALID,114,VALID,1.7974,
2004-10-27, 03:05:00,VALID,914.56,VALID,0,VALID,85.0792,VALID,-0.0849042,VALID,21.6432,VALID,75,VALID,1.83523,
2004-10-27, 03:06:00,VALID,914.563,VALID,0,VALID,85.2153,VALID,-0.0509425,VALID,21.6241,VALID,66,VALID,3.23739,
2004-10-27, 03:07:00,VALID,914.564,VALID,0,VALID,85.4951,VALID,-0.0339617,VALID,21.6112,VALID,114,VALID,2.10193,
2004-10-27, 03:08:00,VALID,914.516,VALID,0,VALID,85.8473,VALID,-0.0169808,VALID,21.5759,VALID,161,VALID,1.2967,
2004-10-27, 03:09:00,VALID,914.501,VALID,0,VALID,86.2949,VALID,-0.0169808,VALID,21.5108,VALID,56,VALID,2.16211,
2004-10-27, 03:10:00,VALID,914.492,VALID,0,VALID,86.0851,VALID,0,VALID,21.4553,VALID,56,VALID,1.62016,
2004-10-27, 03:11:00,VALID,914.403,VALID,0,VALID,85.2865,VALID,-0.0169808,VALID,21.4682,VALID,31,VALID,3.11594,
2004-10-27, 03:12:00,VALID,914.488,VALID,0,VALID,85.8804,VALID,0,VALID,21.5296,VALID,118,VALID,1.97986,
2004-10-27, 03:13:00,VALID,914.479,VALID,0,VALID,86.0914,VALID,-0.0169808,VALID,21.4884,VALID,152,VALID,2.26442,
2004-10-27, 03:14:00,VALID,914.485,VALID,0,VALID,86.1728,VALID,-0.0509425,VALID,21.472,VALID,128,VALID,1.51067,
2004-10-27, 03:15:00,VALID,914.457,VALID,0,VALID,86.3191,VALID,0.0339617,VALID,21.4451,VALID,126,VALID,1.01672,
2004-10-27, 03:16:00,VALID,914.44,VALID,0,VALID,86.1092,VALID,0.101885,VALID,21.4082,VALID,84,VALID,0.872582,
2004-10-27, 03:17:00,VALID,914.459,VALID,0,VALID,86.3114,VALID,0.0509425,VALID,21.409,VALID,50,VALID,1.51172,
2004-10-27, 03:18:00,VALID,914.46,VALID,0,VALID,85.9541,VALID,0.0339617,VALID,21.399,VALID,130,VALID,1.57209,
2004-10-27, 03:19:00,VALID,914.433,VALID,0,VALID,85.8066,VALID,0.101885,VALID,21.4278,VALID,75,VALID,2.04379,
2004-10-27, 03:20:00,VALID,914.385,VALID,0,VALID,85.565,VALID,0.0849042,VALID,21.4865,VALID,108,VALID,1.49721,
2004-10-27, 03:21:00,VALID,914.349,VALID,0,VALID,85.5472,VALID,0.0679233,VALID,21.5118,VALID,115,VALID,1.03441,
2004-10-27, 03:22:00,VALID,914.368,VALID,0,VALID,85.8092,VALID,0.0849042,VALID,21.4989,VALID,59,VALID,1.2128,
2004-10-27, 03:23:00,VALID,914.407,VALID,0,VALID,85.9579,VALID,0.0509425,VALID,21.4666,VALID,51,VALID,1.27762,
2004-10-27, 03:24:00,VALID,914.372,VALID,0,VALID,86.637,VALID,0.0339617,VALID,21.4079,VALID,55,VALID,0.644345,
2004-10-27, 03:25:00,VALID,914.322,VALID,0,VALID,86.8328,VALID,0.0849042,VALID,21.3307,VALID,68,VALID,0.425595,
2004-10-27, 03:26:00,VALID,914.278,VALID,0,VALID,86.9332,VALID,0.0679233,VALID,21.2922,VALID,213,VALID,0.462081,
2004-10-27, 03:27:00,VALID,914.298,VALID,0,VALID,87.3046,VALID,0.0339617,VALID,21.2502,VALID,131,VALID,0.467297,
2004-10-27, 03:28:00,VALID,914.3,VALID,0,VALID,88.3002,VALID,0.0849042,VALID,21.1918,VALID,73,VALID,0.492746,
2004-10-27, 03:29:00,VALID,914.265,VALID,0,VALID,88.4477,VALID,0.0679233,VALID,21.0887,VALID,108,VALID,0.362153,
2004-10-27, 03:30:00,VALID,914.227,VALID,0,VALID,88.3015,VALID,-0.0169808,VALID,21.0219,VALID,134,VALID,0.212891,
2004-10-27, 03:31:00,VALID,914.2,VALID,0,VALID,88.4248,VALID,-0.0339617,VALID,20.9963,VALID,204,VALID,0.554492,
2004-10-27, 03:32:00,VALID,914.219,VALID,0,VALID,88.8381,VALID,-0.0339617,VALID,21.0001,VALID,193,VALID,0.715021,